Simultaneous Nadir Overpasses (SNOs) Predictions

Prediction of SNOs between AQUA and NOAA-19 Satellite Orbit:

Table of predicted SNOs for the next 14.0 days since TLE Epoch: 6/29/2024
Index Date (AQUA) Time (AQUA) Lat,Lon (AQUA) SZA (AQUA ) Date (NOAA-19) Time (NOAA-19) Lat,Lon (NOAA-19) SZA (NOAA-19 ) Distance(km) Time Diff (sec)
1 06/29/2024 20:31:04 75.70,-129.76 52.48 06/29/2024 20:30:02 75.69,-129.77 52.47 1.63 62
2 06/29/2024 21:20:26 -75.75, 37.77 127.47 06/29/2024 21:20:58 -75.76, 37.73 127.46 1.39 32
3 07/02/2024 00:20:57 -75.68, -7.12 127.40 07/02/2024 00:19:56 -75.67, -7.25 127.40 3.51 61
4 07/02/2024 01:10:21 75.75, 160.32 52.68 07/02/2024 01:10:55 75.75, 160.28 52.69 0.88 34
5 07/04/2024 04:10:51 75.69, 115.40 52.80 07/04/2024 04:09:53 75.68, 115.34 52.79 2.42 58
6 07/04/2024 05:00:13 -75.73, -77.05 127.16 07/04/2024 05:00:48 -75.75, -77.14 127.14 3.18 35
7 07/06/2024 08:00:42 -75.68,-121.98 127.01 07/06/2024 07:59:45 -75.69,-122.02 126.99 2.15 57
8 07/06/2024 08:50:06 75.76, 45.43 53.09 07/06/2024 08:50:45 75.77, 45.48 53.09 1.45 39
9 07/08/2024 11:50:34 75.72, 0.48 53.28 07/08/2024 11:49:42 75.71, 0.62 53.28 3.78 52
10 07/08/2024 12:39:56 -75.75, 168.05 126.69 07/08/2024 12:40:37 -75.75, 168.02 126.68 0.96 41
11 07/10/2024 15:40:23 -75.71, 123.09 126.46 07/10/2024 15:39:34 -75.68, 123.08 126.49 3.46 49
12 07/10/2024 16:29:46 75.75, -69.39 53.59 07/10/2024 16:30:35 75.73, -69.48 53.58 3.14 49
13 07/12/2024 19:30:12 75.72,-114.37 53.86 07/12/2024 19:29:31 75.71,-114.26 53.84 3.63 41



Historial Predications of SNOs between AQUA and NOAA-19
